Temp
75 76 77 74 60 58 55 62 74 69 69 75 75 71 68 71 67 58 73 79 76 73 74 79 80 80 80 79 79 79 79 79 80 80 80 80 80 80 80 80 81 81 82 82 82 82 81 80 80
78 82 76 67 56 52 53 65 65 71 75 77 77 74 71 66 75 72 72 78 76 75 73 76 79 79 79 79 79 79 79 79 79 79 79 79 79 80 80 80 80 81 82 82 82 81 81 80 79
82 86 70 60 55 52 53 68 67 73 79 77 73 78 75 71 77 76 77 77 75 72 74 77 79 79 79 79 79 79 79 79 79 79 79 79 79 79 78 78 79 80 80 81 81 81 81 80 80
80 76 70 62 58 58 62 68 72 71 75 77 74 69 76 82 78 78 80 77 72 72 73 78 79 79 79 79 79 79 79 79 79 79 79 79 79 78 78 78 78 79 79 79 79 79 80 80 80
76 72 60 55 61 66 65 72 72 70 71 71 73 68 70 80 81 80 78 77 72 70 72 75 79 79 79 80 79 79 78 78 78 78 78 79 79 78 78 78 79 80 80 79 78 78 78 78 78
73 72 57 54 63 72 69 75 74 72 73 72 70 70 69 80 79 79 78 75 75 72 71 74 79 79 79 79 79 78 78 78 78 77 76 76 76 77 78 78 79 79 79 79 79 78 77 77 77
66 62 58 60 63 64 69 74 74 72 71 73 76 67 70 77 80 80 78 76 74 73 70 70 72 78 79 79 78 78 78 77 77 76 75 75 74 74 74 75 76 76 77 78 78 78 78 77 77
71 66 63 65 63 62 74 74 77 75 73 82 81 66 65 74 81 80 77 75 73 72 71 67 69 69 70 72 79 78 77 76 75 75 74 72 71 72 72 72 74 74 76 76 77 77 77 77 77
75 60 56 65 67 66 73 70 77 83 76 78 79 77 79 80 80 76 73 73 72 73 70 70 70 69 68 71 76 76 76 74 72 70 72 65 63 64 65 70 72 72 73 73 73 72 72 71 71
69 60 66 76 73 71 74 74 75 74 73 72 74 80 81 80 77 74 71 70 69 69 69 69 69 69 70 76 67 67 70 64 63 62 60 59 58 63 66 66 68 68 70 69 69 69 68 67 63
72 67 74 81 80 78 74 70 76 71 67 72 71 75 79 78 76 74 73 72 71 70 71 69 69 69 69 68 65 64 63 62 61 60 58 57 59 58 58 58 60 59 64 61 62 62 62 61 61
70 82 83 82 79 74 73 74 72 71 71 78 79 80 79 77 75 74 72 71 70 71 69 69 69 67 66 65 64 63 63 61 59 57 57 56 54 53 53 55 56 56 56 57 58 58 59 59 60
73 77 81 81 77 75 77 72 72 72 78 80 80 80 78 77 76 74 73 73 71 69 68 68 68 66 66 64 63 62 60 59 56 57 56 54 52 51 51 53 54 53 54 54 55 55 56 57 58
80 78 79 77 74 76 75 74 76 75 80 78 78 77 77 73 72 71 70 69 67 68 67 68 67 65 65 62 61 59 60 57 56 54 54 54 51 50 50 51 51 52 51 52 52 52 52 53 55
79 70 74 71 73 71 77 69 71 78 79 77 76 76 74 73 73 71 71 68 67 66 66 67 66 64 63 61 60 58 60 57 54 53 54 55 52 51 49 49 49 50 51 51 51 51 52 52 54
72 65 59 67 72 74 74 60 72 78 78 74 75 75 73 72 72 72 71 68 67 65 63 63 68 63 61 59 58 59 57 55 53 52 53 55 55 52 49 49 49 50 50 50 50 50 50 50 50
63 56 60 65 71 72 69 65 74 76 76 73 74 74 71 70 70 70 70 68 65 64 63 62 61 60 59 58 57 56 55 54 52 52 52 54 55 55 49 49 49 50 49 50 50 50 49 49 50
58 56 56 62 69 71 66 65 71 74 75 72 72 72 70 68 68 69 68 67 65 63 62 60 59 57 57 56 56 54 54 52 52 52 52 53 52 54 49 49 49 49 48 49 49 48 49 47 47
67 65 65 70 74 69 69 67 69 73 71 68 71 71 68 68 69 67 67 66 65 64 62 59 57 55 55 54 54 52 50 50 50 52 53 53 53 53 50 49 49 49 48 47 48 47 47 46 47
70 66 65 66 74 67 66 67 68 71 71 68 68 69 67 65 65 65 64 65 64 61 61 60 56 54 53 54 52 53 51 50 51 51 53 54 54 53 52 49 49 49 47 47 47 47 45 45 47
68 65 63 67 69 65 61 60 65 68 70 72 72 72 68 65 62 62 63 63 63 60 60 60 56 54 53 53 53 52 51 50 49 50 51 52 54 54 52 52 50 49 47 47 47 46 46 44 45
62 74 73 70 62 54 64 48 60 64 67 71 72 68 66 66 64 63 63 62 61 61 62 58 56 54 54 53 50 49 47 46 47 48 49 51 53 53 54 53 51 49 48 47 47 50 47 45 44
70 75 72 70 61 58 54 51 56 63 61 64 67 69 66 64 63 62 63 62 61 62 59 57 55 53 52 52 51 49 47 47 48 48 49 49 50 52 54 53 51 49 48 49 48 48 47 46 45
78 70 65 60 56 49 55 53 50 55 58 62 65 65 65 63 63 63 64 62 60 61 60 56 54 51 52 52 51 50 50 49 48 48 48 48 49 49 51 52 50 50 49 48 48 48 48 47 48
70 57 49 48 49 48 55 53 52 60 64 66 64 63 64 64 61 62 62 61 58 57 57 55 53 51 51 52 51 51 50 49 49 48 48 48 48 48 50 49 49 49 49 50 48 47 48 47 46
65 61 49 44 46 50 57 52 56 62 67 68 65 65 64 62 62 63 64 63 58 57 56 57 52 51 51 52 51 50 50 49 49 49 49 48 48 48 50 50 50 50 50 49 49 47 47 49 49
63 59 64 53 50 47 51 55 61 60 63 66 60 62 61 63 62 65 66 62 59 58 56 56 52 51 51 51 51 50 50 50 50 50 49 49 49 52 51 51 50 49 49 48 48 47 47 47 47
69 69 55 50 45 42 48 49 53 56 59 63 63 60 62 63 65 67 63 60 60 59 57 55 55 52 51 51 51 51 50 51 51 50 50 49 49 50 51 51 50 49 48 47 47 50 47 47 50
62 59 59 57 52 46 43 48 59 59 59 59 61 61 62 63 66 63 61 61 60 59 58 55 54 52 51 51 50 50 51 52 51 50 50 50 49 50 51 51 50 49 47 45 45 47 48 46 47
69 66 63 52 51 49 48 50 67 64 62 62 61 63 65 65 65 62 61 61 60 58 57 54 54 53 52 52 51 51 51 51 51 50 50 50 50 51 52 52 51 50 48 45 45 48 47 46 46
MSLP
1010.90 1011.22 1011.32 1011.68 1013.00 1014.31 1015.14 1014.52 1012.98 1012.64 1012.51 1013.06 1012.59 1013.10 1013.91 1014.17 1014.93 1016.97 1017.15 1017.17 1017.22 1017.28 1017.33 1016.96 1016.79 1016.70 1016.55 1016.38 1016.34 1016.30 1016.26 1016.16 1016.10 1016.06 1016.09 1016.14 1016.13 1016.11 1016.19 1016.23 1016.22 1016.27 1016.38 1016.51 1016.53 1016.57 1016.55 1016.61 1016.81
1010.85 1010.95 1011.50 1012.15 1013.74 1014.95 1015.70 1014.38 1013.51 1012.90 1012.82 1012.89 1012.91 1013.40 1013.83 1014.92 1015.19 1016.56 1017.00 1017.38 1017.14 1017.32 1017.39 1017.21 1016.94 1016.88 1016.86 1016.81 1016.78 1016.79 1016.74 1016.77 1016.67 1016.62 1016.50 1016.48 1016.39 1016.38 1016.25 1016.31 1016.30 1016.39 1016.43 1016.50 1016.51 1016.59 1016.64 1016.58 1016.73
1010.55 1010.55 1011.71 1013.26 1014.90 1015.37 1015.54 1014.24 1013.80 1013.37 1012.90 1012.58 1012.83 1013.35 1013.82 1014.97 1015.62 1016.36 1016.65 1017.15 1017.30 1017.61 1017.47 1017.32 1017.17 1017.08 1017.04 1017.08 1017.11 1017.04 1017.06 1017.04 1017.05 1016.96 1016.93 1016.86 1016.71 1016.73 1016.66 1016.65 1016.68 1016.65 1016.64 1016.62 1016.52 1016.58 1016.56 1016.44 1016.31
1010.48 1011.21 1013.21 1013.73 1014.88 1015.04 1014.98 1013.95 1013.49 1013.42 1013.13 1012.91 1013.21 1013.98 1014.48 1014.69 1015.48 1016.12 1016.74 1016.93 1017.51 1017.81 1017.64 1017.50 1017.42 1017.37 1017.41 1017.42 1017.54 1017.57 1017.69 1017.62 1017.53 1017.42 1017.30 1017.14 1017.06 1016.99 1016.90 1016.81 1016.80 1016.82 1016.80 1016.81 1016.63 1016.68 1016.61 1016.49 1016.28
1010.71 1011.63 1013.49 1014.78 1014.95 1014.08 1013.80 1013.60 1013.55 1013.35 1013.22 1013.46 1013.54 1014.52 1014.78 1015.12 1015.58 1016.28 1016.85 1017.16 1017.27 1017.83 1017.80 1017.66 1017.57 1017.52 1017.57 1017.71 1017.84 1017.93 1017.90 1017.92 1017.86 1017.87 1017.69 1017.43 1017.51 1017.42 1017.26 1017.07 1017.06 1017.00 1016.90 1016.82 1016.73 1016.76 1016.61 1016.42 1016.23
1011.30 1011.82 1013.75 1014.75 1014.41 1013.32 1012.99 1013.14 1013.42 1013.09 1013.34 1013.86 1014.12 1014.18 1015.11 1015.49 1015.80 1016.62 1017.04 1017.36 1017.22 1017.73 1017.95 1017.84 1017.77 1017.67 1017.74 1017.82 1017.92 1018.10 1018.16 1018.28 1018.33 1018.31 1018.27 1018.26 1018.24 1017.93 1017.51 1017.49 1017.43 1017.23 1017.13 1016.96 1016.85 1016.81 1016.63 1016.50 1016.35
1011.66 1012.47 1013.28 1013.68 1013.41 1013.07 1013.03 1013.03 1013.35 1012.80 1013.07 1013.56 1013.76 1014.42 1015.24 1015.62 1016.15 1016.67 1017.17 1017.36 1017.57 1017.86 1018.08 1018.17 1018.08 1017.88 1017.89 1018.00 1018.09 1018.20 1018.27 1018.37 1018.47 1018.58 1018.62 1018.73 1018.71 1018.63 1018.42 1018.34 1017.98 1017.77 1017.33 1017.04 1016.95 1016.90 1016.68 1016.50 1016.35
1010.84 1011.65 1012.44 1012.78 1012.69 1012.78 1012.54 1012.81 1012.76 1012.36 1012.83 1013.32 1013.17 1014.43 1014.98 1015.48 1015.85 1016.63 1017.29 1017.64 1017.99 1018.06 1018.18 1018.40 1018.32 1018.27 1018.22 1018.35 1018.37 1018.42 1018.61 1018.85 1018.95 1018.98 1019.06 1019.21 1019.30 1019.11 1018.99 1018.77 1018.37 1018.10 1017.61 1017.28 1016.96 1016.66 1016.60 1016.28 1016.20
1010.31 1011.40 1011.75 1011.91 1011.93 1012.36 1012.23 1012.36 1012.48 1012.04 1012.74 1013.17 1012.88 1013.36 1014.24 1015.33 1015.95 1016.87 1017.59 1018.13 1018.29 1018.43 1018.51 1018.52 1018.61 1018.70 1018.81 1018.72 1018.75 1018.73 1018.91 1019.26 1019.50 1019.67 1019.66 1019.85 1019.81 1019.59 1019.40 1019.05 1018.65 1018.35 1017.91 1017.64 1017.51 1017.38 1017.14 1017.00 1016.82
1010.00 1010.44 1010.28 1009.72 1010.47 1011.29 1011.83 1011.68 1012.22 1012.66 1013.32 1013.66 1013.69 1014.17 1014.68 1015.43 1016.00 1016.76 1017.50 1018.03 1018.32 1018.63 1018.86 1018.73 1018.72 1018.95 1019.05 1018.94 1019.15 1019.15 1019.44 1019.84 1020.07 1020.16 1020.21 1020.21 1020.23 1019.95 1019.65 1019.45 1019.13 1018.89 1018.54 1018.34 1018.15 1017.95 1017.82 1017.68 1017.57
1008.89 1008.97 1009.04 1009.14 1009.74 1010.20 1011.10 1011.80 1012.09 1012.60 1013.56 1012.94 1013.25 1014.01 1014.49 1015.25 1015.95 1016.60 1017.36 1017.56 1018.11 1018.45 1018.68 1018.62 1018.70 1018.88 1019.06 1019.27 1019.30 1019.38 1019.86 1020.23 1020.50 1020.52 1020.53 1020.49 1020.44 1020.41 1020.23 1020.04 1019.76 1019.48 1019.10 1018.89 1018.61 1018.40 1018.23 1018.07 1017.79
1008.39 1007.67 1008.12 1008.38 1009.56 1010.31 1010.77 1011.32 1011.93 1012.05 1012.42 1012.73 1013.09 1013.59 1014.30 1015.06 1015.76 1016.47 1017.29 1017.83 1018.35 1018.48 1018.65 1018.83 1018.93 1019.18 1019.35 1019.38 1019.52 1019.74 1020.13 1020.63 1020.89 1020.95 1020.85 1020.89 1021.00 1020.93 1020.79 1020.54 1020.25 1019.97 1019.67 1019.35 1019.07 1018.82 1018.55 1018.20 1017.87
1008.09 1007.96 1007.87 1008.49 1009.50 1010.00 1010.57 1010.99 1011.30 1011.84 1012.28 1012.61 1013.10 1013.71 1014.41 1015.14 1015.97 1016.75 1017.34 1017.92 1018.18 1018.74 1019.04 1019.12 1019.13 1019.45 1019.55 1019.72 1019.92 1020.18 1020.68 1021.03 1021.29 1021.25 1021.25 1021.19 1021.29 1021.32 1021.10 1020.83 1020.56 1020.28 1019.91 1019.63 1019.36 1019.02 1018.64 1018.17 1017.74
1007.46 1007.89 1008.41 1009.55 1009.82 1009.95 1010.22 1010.94 1010.82 1011.99 1012.23 1012.69 1013.24 1013.77 1014.68 1015.60 1016.20 1017.08 1017.79 1018.49 1018.88 1019.20 1019.44 1019.52 1019.72 1019.68 1019.71 1020.03 1020.24 1020.63 1021.05 1021.42 1021.49 1021.58 1021.57 1021.37 1021.36 1021.40 1021.32 1021.09 1020.80 1020.47 1020.17 1019.84 1019.58 1019.30 1018.89 1018.42 1017.79
1007.55 1009.06 1009.23 1010.37 1010.47 1010.58 1010.34 1011.09 1011.01 1011.35 1011.94 1012.51 1013.32 1013.89 1015.05 1016.04 1016.36 1017.33 1018.21 1018.68 1018.92 1019.43 1019.52 1019.71 1019.98 1020.07 1020.23 1020.41 1020.60 1020.95 1021.24 1021.62 1021.80 1021.76 1021.53 1021.43 1021.37 1021.39 1021.42 1021.20 1020.96 1020.70 1020.29 1019.97 1019.59 1019.24 1018.84 1018.55 1018.04
1008.59 1009.76 1010.26 1010.34 1010.36 1010.57 1010.52 1011.10 1011.38 1011.35 1011.77 1012.55 1013.52 1014.19 1014.93 1016.13 1016.67 1017.42 1017.91 1018.54 1018.91 1019.39 1019.80 1020.05 1020.30 1020.61 1020.76 1020.89 1021.04 1021.44 1021.79 1021.90 1021.99 1021.89 1021.75 1021.61 1021.48 1021.46 1021.48 1021.31 1020.99 1020.70 1020.30 1020.03 1019.76 1019.49 1019.11 1018.69 1018.22
1009.73 1010.36 1010.46 1010.38 1010.16 1010.28 1010.55 1011.19 1011.37 1011.55 1012.01 1012.51 1013.32 1014.37 1014.95 1015.97 1016.84 1017.23 1017.69 1018.40 1019.17 1019.54 1019.88 1020.30 1020.60 1020.99 1021.14 1021.08 1021.27 1021.58 1021.83 1021.93 1022.03 1021.90 1021.78 1021.68 1021.53 1021.46 1021.47 1021.27 1020.97 1020.72 1020.45 1020.03 1019.93 1019.53 1019.24 1018.82 1018.22
1009.63 1010.24 1010.31 1009.83 1009.91 1009.76 1010.73 1011.04 1011.51 1011.75 1011.88 1012.49 1013.40 1014.31 1015.16 1015.71 1016.50 1017.15 1017.70 1018.38 1019.23 1019.94 1020.41 1020.79 1021.03 1021.20 1021.17 1021.24 1021.63 1021.91 1022.05 1022.26 1022.14 1022.02 1021.88 1021.81 1021.78 1021.69 1021.59 1021.31 1021.03 1020.77 1020.64 1020.35 1020.03 1019.71 1019.24 1018.99 1018.49
1008.61 1008.87 1009.11 1008.74 1009.00 1009.52 1009.73 1010.05 1011.10 1011.41 1012.41 1013.34 1013.74 1014.36 1015.36 1016.16 1016.80 1017.39 1017.74 1018.26 1019.22 1020.31 1021.14 1021.24 1021.57 1021.52 1021.26 1021.43 1021.88 1022.30 1022.64 1022.73 1022.59 1022.31 1022.10 1021.79 1021.67 1021.58 1021.52 1021.41 1021.17 1020.92 1020.81 1020.62 1020.25 1019.80 1019.43 1019.00 1018.47
1008.19 1008.49 1008.83 1009.33 1008.95 1009.84 1009.94 1009.96 1010.56 1010.67 1011.71 1012.77 1013.36 1014.08 1014.84 1016.20 1017.23 1017.79 1018.21 1018.71 1019.34 1020.19 1021.29 1021.63 1021.79 1021.75 1021.63 1021.67 1021.86 1022.27 1022.71 1022.85 1022.68 1022.64 1022.28 1021.94 1021.60 1021.43 1021.34 1021.41 1021.24 1020.96 1020.85 1020.66 1020.32 1019.94 1019.73 1019.37 1018.74
1007.32 1008.08 1008.59 1008.82 1008.72 1010.20 1010.81 1010.68 1010.12 1010.25 1010.80 1011.51 1012.67 1013.23 1014.29 1015.08 1016.51 1017.70 1018.24 1018.81 1019.48 1020.14 1020.97 1021.90 1022.04 1021.98 1022.00 1022.08 1022.29 1022.64 1022.80 1022.85 1023.01 1022.89 1022.60 1022.09 1021.88 1021.62 1021.40 1021.18 1021.09 1020.89 1020.75 1020.62 1020.27 1019.90 1019.73 1019.61 1018.97
1006.95 1006.56 1007.39 1008.57 1009.77 1010.52 1010.65 1011.56 1010.30 1010.09 1009.95 1010.86 1012.07 1013.30 1014.39 1015.28 1016.42 1017.14 1018.05 1018.94 1019.54 1020.46 1021.01 1021.75 1022.12 1022.26 1022.25 1022.22 1022.76 1022.98 1023.16 1023.11 1023.04 1022.86 1022.69 1022.30 1022.03 1021.80 1021.43 1021.21 1021.19 1021.02 1020.75 1020.44 1020.08 1019.78 1019.57 1019.45 1019.28
1006.13 1006.24 1007.11 1007.70 1009.23 1010.07 1011.26 1011.99 1011.03 1010.69 1011.57 1012.10 1013.15 1013.83 1014.50 1015.61 1016.41 1016.88 1018.00 1018.88 1019.47 1020.48 1021.38 1021.74 1022.16 1022.42 1022.41 1022.33 1022.68 1022.95 1023.23 1023.04 1023.04 1023.03 1022.92 1022.56 1021.96 1021.62 1021.39 1021.20 1021.00 1020.92 1020.68 1020.30 1019.99 1019.65 1019.40 1019.19 1019.10
1005.62 1006.37 1007.27 1008.26 1009.69 1010.44 1010.49 1011.46 1012.42 1012.06 1012.20 1012.90 1013.35 1013.65 1015.89 1016.60 1017.09 1017.98 1018.12 1018.88 1019.56 1020.49 1021.09 1021.62 1022.10 1022.58 1022.39 1022.55 1022.77 1022.76 1022.91 1023.16 1023.12 1023.01 1022.93 1022.60 1022.24 1021.67 1021.29 1021.21 1021.01 1020.68 1020.43 1020.20 1019.92 1019.59 1019.28 1019.03 1018.77
1005.62 1007.09 1008.24 1009.43 1010.24 1010.52 1010.16 1011.24 1011.42 1011.34 1011.36 1010.87 1011.45 1012.64 1014.54 1015.88 1016.37 1017.69 1018.37 1019.31 1019.44 1020.54 1021.24 1021.57 1022.08 1022.51 1022.28 1022.70 1022.88 1022.69 1022.86 1022.97 1022.93 1022.83 1022.91 1022.74 1022.42 1022.03 1021.46 1021.16 1020.98 1020.60 1020.20 1019.87 1019.73 1019.55 1019.17 1018.87 1018.66
1005.30 1006.51 1008.15 1009.49 1010.59 1010.63 1010.55 1011.05 1010.37 1010.26 1010.67 1011.38 1011.44 1011.04 1012.64 1013.79 1015.56 1016.79 1017.66 1018.96 1018.96 1020.26 1020.85 1021.42 1022.02 1022.09 1022.34 1022.72 1022.78 1022.72 1022.75 1022.86 1022.81 1022.75 1022.68 1022.54 1022.22 1021.85 1021.37 1020.99 1020.76 1020.48 1020.16 1019.84 1019.59 1019.48 1019.10 1018.77 1018.46
1004.77 1005.86 1006.81 1008.73 1009.97 1010.74 1010.71 1010.94 1010.06 1010.22 1009.91 1010.77 1011.54 1012.05 1013.07 1013.60 1014.72 1015.92 1017.04 1018.32 1018.93 1019.92 1020.42 1021.05 1021.72 1021.88 1022.27 1022.47 1022.52 1022.61 1022.60 1022.68 1022.65 1022.56 1022.47 1022.32 1022.05 1021.55 1021.30 1020.91 1020.71 1020.66 1020.33 1020.00 1019.62 1019.45 1019.09 1018.71 1018.36
1003.74 1004.91 1006.89 1008.59 1009.98 1010.74 1010.64 1010.83 1010.12 1010.07 1009.65 1009.66 1010.10 1010.94 1012.14 1012.84 1014.18 1015.32 1016.54 1017.82 1018.66 1019.22 1020.06 1020.78 1021.12 1021.54 1021.82 1022.14 1022.46 1022.48 1022.50 1022.55 1022.47 1022.33 1022.19 1022.05 1021.86 1021.52 1021.26 1021.01 1020.73 1020.63 1020.41 1020.14 1019.74 1019.46 1019.12 1018.67 1018.23
1003.99 1004.63 1006.05 1007.58 1008.86 1009.87 1010.33 1009.94 1008.28 1008.63 1009.17 1009.88 1009.94 1010.72 1011.49 1012.81 1013.72 1014.95 1016.11 1017.25 1018.03 1018.87 1019.76 1020.50 1020.95 1021.18 1021.85 1022.25 1022.36 1022.40 1022.35 1022.33 1022.29 1022.26 1022.16 1021.92 1021.64 1021.37 1021.23 1021.12 1020.91 1020.75 1020.63 1020.33 1019.86 1019.48 1019.14 1018.77 1018.33
1003.41 1003.81 1005.10 1007.03 1008.48 1009.23 1009.24 1008.15 1007.03 1007.37 1008.34 1009.47 1009.86 1010.63 1011.19 1012.07 1013.34 1014.66 1015.89 1016.81 1017.74 1018.63 1019.40 1020.11 1020.53 1021.11 1021.52 1021.93 1022.26 1022.24 1022.32 1022.21 1022.16 1022.12 1022.00 1021.67 1021.58 1021.21 1021.07 1021.06 1021.01 1020.86 1020.72 1020.43 1019.98 1019.55 1019.19 1018.80 1018.42
Wind_Speed
6 5 2 4 7 6 2 2 4 3 6 12 10 11 11 8 5 9 4 12 9 7 4 9 14 15 17 17 17 16 15 15 15 13 10 9 8 9 8 8 8 8 6 5 4 6 6 4 2
3 2 4 2 6 5 2 3 7 6 14 15 15 14 15 16 8 12 5 9 11 9 5 8 16 16 17 17 17 16 16 16 16 15 15 15 13 11 10 8 7 6 5 3 3 3 5 7 4
1 1 4 5 3 4 3 5 3 3 4 3 6 6 6 9 10 5 11 12 11 6 6 11 17 17 18 18 18 17 17 17 17 15 13 12 12 11 10 10 10 9 8 7 5 4 4 7 10
2 3 5 6 2 4 5 7 3 3 7 10 11 7 5 8 5 8 13 15 10 6 6 14 17 17 17 19 19 18 17 18 18 18 16 14 12 10 10 9 8 7 6 6 7 7 8 9 10
3 3 6 3 3 5 7 4 7 5 5 11 4 8 5 7 18 16 15 13 14 7 6 9 16 18 18 18 18 17 18 20 21 22 24 13 12 12 9 9 10 10 9 7 7 9 9 10 13
3 3 5 4 7 12 2 5 7 10 14 14 12 10 3 17 19 14 13 12 12 11 6 7 15 16 16 16 16 16 16 18 20 21 23 23 22 22 13 8 12 12 10 8 7 8 10 11 11
4 5 5 4 2 2 5 5 8 14 15 7 11 10 5 9 14 15 12 12 11 8 7 5 5 12 16 14 15 15 17 18 19 20 21 20 21 21 21 22 19 20 21 10 10 9 9 10 11
5 4 4 4 5 3 6 5 7 18 9 15 16 8 8 7 20 16 12 12 11 8 7 6 5 4 6 6 14 15 17 18 18 19 20 20 19 20 20 19 19 20 20 20 22 17 20 9 11
4 4 3 8 12 7 6 7 4 6 16 7 3 14 12 19 19 15 12 9 9 7 6 5 4 3 4 5 8 12 18 18 18 15 18 13 7 9 12 18 20 21 21 20 22 22 22 21 19
6 4 8 8 9 15 16 18 10 8 9 10 16 10 19 20 18 16 14 11 8 8 6 5 6 6 4 6 4 6 10 7 6 7 7 5 7 10 13 15 21 20 22 20 21 21 20 15 7
4 5 5 11 9 19 13 5 3 17 8 18 22 18 16 17 16 16 14 15 12 8 6 7 7 7 7 4 3 3 5 5 6 8 6 7 7 6 6 5 6 7 15 7 10 10 7 9 6
4 12 4 8 9 8 12 9 9 1 8 16 18 19 16 15 12 15 12 10 11 11 8 7 7 7 6 3 4 4 6 5 5 5 6 6 3 4 5 5 5 6 5 7 7 5 7 7 7
4 9 6 10 11 10 10 7 8 6 17 15 15 15 15 15 9 8 9 9 11 9 7 7 7 6 5 6 4 5 7 6 4 5 6 4 5 5 4 5 4 4 5 4 6 6 7 7 8
4 10 14 7 6 8 13 9 7 9 16 15 16 16 9 15 15 14 13 10 8 8 7 7 7 6 7 4 5 5 7 5 5 4 4 6 4 4 4 4 4 5 4 4 4 4 5 5 7
10 9 10 8 5 4 10 3 9 15 16 13 11 14 17 16 19 17 15 13 12 8 7 9 8 6 7 6 6 5 7 6 4 4 6 6 6 5 5 4 4 4 5 6 5 5 5 5 6
7 7 5 2 1 2 3 5 3 13 15 11 16 16 18 13 16 14 12 13 11 11 10 9 7 7 7 7 5 6 5 5 4 4 4 5 5 5 4 4 4 4 5 4 4 4 4 4 5
7 4 3 0 4 3 4 3 9 9 14 13 18 16 16 15 13 13 13 13 12 11 10 9 8 7 6 7 6 6 6 5 4 3 4 4 4 5 4 4 4 5 4 4 4 5 3 5 6
5 6 2 5 5 5 5 8 4 9 14 13 14 15 16 18 16 15 16 14 12 10 9 8 6 6 5 5 5 4 5 4 4 4 3 2 2 3 3 4 5 4 4 5 5 5 3 3 5
3 6 4 1 3 4 9 14 9 12 8 6 11 13 14 14 13 14 14 15 15 11 8 7 6 4 4 4 4 4 4 2 2 3 0 3 3 2 3 3 4 4 4 4 5 4 5 4 3
6 7 5 3 10 6 4 14 8 14 13 12 14 14 17 10 13 13 13 14 12 12 8 6 6 5 4 3 2 3 3 0 2 1 2 2 4 4 3 3 4 4 3 5 5 4 4 3 4
4 8 6 10 4 2 3 10 5 6 10 14 13 15 16 23 19 15 14 12 12 12 10 6 6 6 5 6 4 3 3 2 2 2 3 4 5 5 5 5 4 5 3 3 4 3 4 3 4
6 8 8 8 7 7 10 7 6 6 17 19 13 11 16 17 15 14 15 15 13 10 9 7 6 6 6 7 5 5 2 2 1 2 2 4 5 6 5 5 4 4 3 5 4 4 3 1 4
12 6 7 10 10 6 2 4 8 5 5 4 5 7 14 15 15 16 14 14 14 11 9 7 7 6 6 7 6 4 3 1 1 2 4 4 3 4 3 4 4 4 4 5 5 6 5 2 2
6 3 4 5 5 0 7 7 3 2 3 4 8 9 6 11 10 10 13 14 12 10 9 7 8 6 6 6 4 6 4 1 2 2 3 3 3 3 3 5 4 4 4 4 4 5 5 4 3
4 6 3 4 5 7 3 4 8 10 13 13 16 14 14 14 14 13 14 12 13 11 9 7 8 7 7 6 4 5 4 2 2 0 1 3 3 3 4 3 4 3 4 5 4 5 5 5 3
9 10 8 7 4 6 2 5 6 9 6 8 13 18 20 21 15 16 16 14 15 13 11 8 8 8 7 6 5 4 3 1 1 0 1 2 2 3 3 4 4 5 5 5 5 3 4 5 4
4 4 10 6 1 3 4 4 6 7 14 8 17 15 16 17 19 18 16 13 13 14 11 10 9 7 8 7 5 4 2 0 0 0 0 1 3 3 4 4 4 6 6 6 5 4 5 5 4
8 6 2 3 4 5 3 3 7 8 10 7 11 20 20 19 19 16 12 15 13 13 10 9 11 10 8 7 5 4 3 1 1 1 1 1 3 3 5 5 5 5 6 6 6 4 4 6 4
1 3 3 6 6 6 4 8 7 11 10 10 12 16 21 20 18 13 15 14 14 13 12 10 10 10 8 6 6 5 3 0 1 1 1 2 2 3 4 4 4 4 6 6 6 6 5 6 6
10 10 7 6 5 2 4 8 7 13 15 13 15 17 19 18 15 16 17 16 16 15 12 11 9 9 7 6 5 4 2 1 0 2 2 2 3 3 2 3 4 5 6 6 6 6 6 6 6
Wind_Direction
185 145 140 43 64 65 77 296 150 101 70 60 66 79 86 53 90 125 158 123 120 96 58 83 80 79 76 74 69 66 61 56 54 57 59 72 81 78 87 90 87 89 83 72 97 121 118 103 86
161 170 52 83 80 80 12 285 148 105 128 129 96 91 76 72 78 126 109 127 110 110 109 94 90 85 81 77 75 73 67 61 58 57 56 57 61 62 66 67 66 64 84 120 119 161 188 190 202
144 61 66 72 74 107 180 240 180 180 152 78 90 39 71 102 95 124 124 123 104 104 105 100 96 92 87 81 76 72 68 63 57 52 50 51 55 61 64 58 52 47 32 12 352 314 242 235 225
101 32 48 43 331 244 200 218 232 179 66 85 125 66 58 78 104 137 130 117 122 113 103 104 101 96 89 83 77 71 65 59 51 43 35 43 45 44 41 41 39 30 18 0 353 343 327 293 269
37 60 63 92 266 263 206 230 181 191 89 107 97 110 77 75 129 140 135 141 126 123 118 110 108 102 96 90 82 72 63 56 49 42 37 31 30 25 38 51 44 28 16 4 348 319 312 309 302
36 86 88 114 242 246 96 169 187 113 110 103 102 99 103 128 138 147 141 144 124 127 130 117 117 112 109 104 96 86 75 65 52 42 37 33 27 23 18 16 16 4 355 351 346 337 322 307 293
121 93 167 181 281 129 189 209 198 126 131 133 151 111 162 134 152 141 136 126 125 123 120 119 127 122 117 105 97 85 74 60 49 43 39 35 31 28 21 18 14 11 7 346 342 325 317 301 291
133 87 119 202 178 224 238 186 154 147 146 134 140 156 171 125 147 130 128 124 128 133 134 139 109 101 102 110 102 90 79 69 59 50 43 40 33 23 18 13 7 6 7 8 11 357 351 293 300
125 73 205 165 159 181 168 125 123 124 135 191 227 136 145 130 128 122 124 134 132 124 110 113 123 77 80 110 73 84 85 78 71 56 51 43 29 15 17 7 9 6 13 19 19 24 27 26 15
122 157 202 223 156 152 151 129 132 122 131 108 112 120 131 136 135 133 137 135 121 116 122 114 96 114 124 77 92 85 86 76 69 64 51 49 36 20 13 7 10 12 16 17 22 18 20 19 6
164 129 181 130 155 146 144 115 115 125 140 157 152 155 154 145 145 140 140 143 149 143 119 100 96 86 84 95 81 69 94 82 65 55 48 46 36 14 5 4 4 5 11 14 18 14 16 9 1
142 160 151 162 152 125 147 134 130 157 172 162 157 159 161 160 155 149 150 145 137 118 110 102 98 90 80 82 79 80 95 83 74 55 61 57 43 20 6 4 7 7 0 5 7 3 356 357 352
172 197 89 119 144 137 130 138 153 145 151 167 160 167 175 168 159 128 118 117 111 111 105 88 92 91 77 68 80 74 88 83 75 64 61 60 44 18 2 1 5 359 356 358 351 349 348 347 345
197 68 103 69 145 144 127 143 113 154 163 173 168 178 156 124 121 109 103 104 105 110 100 84 74 72 63 68 95 98 101 97 79 68 73 64 64 31 19 7 359 354 346 337 336 335 333 326 330
133 101 61 34 338 97 103 60 149 156 165 175 134 140 128 128 120 125 131 124 117 103 106 93 72 52 54 68 89 91 103 93 81 70 58 56 46 30 18 13 355 341 328 333 339 333 337 335 324
83 56 89 291 340 200 174 214 188 161 159 167 137 139 133 143 138 144 139 126 118 106 92 77 67 54 49 72 87 90 101 98 90 77 67 58 40 39 19 6 350 329 326 322 335 326 327 320 316
27 140 99 326 139 111 41 126 174 181 167 174 154 154 144 140 146 147 137 125 121 119 112 92 69 69 75 77 84 92 102 96 100 91 70 43 23 26 24 2 334 340 337 337 337 328 332 325 320
158 134 222 167 191 162 155 209 219 209 185 184 164 158 153 153 154 143 129 120 109 94 90 90 86 80 84 92 88 76 81 70 66 67 70 54 7 24 12 352 345 346 345 347 341 325 321 289 296
161 137 136 88 201 155 243 266 187 198 206 180 172 168 163 160 148 136 126 117 111 105 90 77 82 69 76 62 89 88 100 106 60 67 38 37 18 10 7 348 347 344 347 324 324 306 320 316 319
204 168 186 346 253 160 349 266 178 202 180 173 189 185 163 146 145 140 133 128 119 120 117 100 96 73 80 78 71 110 144 177 118 284 318 350 351 341 336 342 333 348 356 345 331 334 318 293 327
247 172 203 211 235 63 59 313 202 161 171 182 198 185 164 160 157 154 146 134 127 126 130 122 115 94 85 83 73 69 58 49 37 340 322 317 319 316 339 340 346 344 343 327 312 321 338 309 306
258 241 235 208 126 218 136 258 294 192 187 188 182 163 167 166 158 152 147 139 138 141 131 142 129 110 90 92 86 98 133 90 250 253 283 302 319 326 314 326 344 334 324 330 315 319 297 280 306
242 277 263 249 179 124 196 108 284 92 183 182 355 199 171 170 163 155 148 145 137 141 145 143 138 115 121 102 114 110 96 119 316 360 356 339 339 357 349 337 324 344 338 325 329 330 333 306 276
241 251 35 55 157 247 199 144 271 216 137 94 93 114 170 171 158 158 145 145 140 143 147 149 135 150 127 117 129 124 116 44 49 4 351 333 315 344 358 344 347 334 336 339 328 321 317 325 304
141 75 346 334 349 231 182 76 216 202 197 198 178 143 154 173 158 165 154 161 147 153 158 151 142 161 134 137 137 109 109 111 152 118 303 331 328 323 330 346 350 332 327 335 341 334 332 331 344
194 154 160 200 206 264 48 227 264 217 205 169 160 165 158 177 162 165 168 171 152 164 161 159 157 148 142 151 139 117 132 143 206 283 266 277 272 278 298 338 356 341 347 346 350 327 324 332 333
247 191 180 134 280 77 202 304 280 238 270 169 177 163 173 169 161 168 177 167 159 163 165 165 160 139 158 164 157 161 164 162 69 73 223 282 299 311 334 338 360 2 358 347 339 343 333 338 326
166 165 78 10 181 237 253 200 235 208 240 242 175 176 180 158 162 169 151 158 159 159 159 163 159 160 166 165 178 174 188 197 196 177 228 330 326 355 10 3 20 15 359 354 346 334 340 343 329
292 239 127 126 138 185 193 254 214 205 186 185 170 161 160 163 167 152 147 150 154 156 162 159 159 150 156 168 167 166 188 140 202 256 305 339 341 1 6 358 18 6 2 352 353 342 339 348 331
210 209 161 136 253 168 168 262 186 193 180 171 167 167 166 165 160 150 154 154 153 161 161 159 156 153 163 165 159 171 171 188 177 239 281 310 348 324 7 12 18 357 356 346 353 342 329 335 334